Williston, ND

1:52 AM CDT on October 17, 2017 (GMT -0500)
Sloulin International

Weather History for KISN - August, 2013

Change the Weather History Date:

Tuesday, August 20, 2013

  Actual Average Record
Temperature  
Mean Temperature 73 °F 68 °F  
Max Temperature 91 °F 83 °F 101 °F (1942)
Min Temperature 54 °F 53 °F 36 °F (1907)
Degree Days  
Heating Degree Days 0 2  
Month to date heating degree days 21 21  
Since 1 June heating degree days 174 165  
Since 1 July heating degree days 46 45  
Cooling Degree Days 8 5  
Month to date cooling degree days 62 126  
Year to date cooling degree days 223 389  
Since 1 June cooling degree days 215 376  
Growing Degree Days 22 (Base 50)    
Moisture  
Dew Point 53 °F    
Average Humidity 59    
Maximum Humidity 93    
Minimum Humidity 24    
Precipitation  
Precipitation 0.00 in 0.05 in 1.15 in (1974)
Month to date precipitation 1.76 0.96  
Year to date precipitation 15.48 10.63  
Snow  
Snow 0.00 in - - ()
Month to date snowfall 0.0  
Since 1 June snowfall 0.0  
Snow Depth 0.00 in    
Sea Level Pressure  
Sea Level Pressure 29.78 in    
Wind  
Wind Speed 9 mph (WNW)    
Max Wind Speed 24 mph    
Max Gust Speed 31 mph    
Visibility 10 miles    
Events      
T = Trace of Precipitation, MM = Missing Value Source: NWS Daily Summary

Daily Weather History Graph

Daily Weather History Graph

Search for Another Location

Airport or City:

Trip Planner

Search our weather history database for the weather conditions in past years. The results will help you decide how hot, cold, wet, or windy it might be!

Date:

Astronomy

Aug. 20, 2013 Rise Set
Actual Time 6:56 AM CDT 8:58 PM CDT
Civil Twilight 6:22 AM CDT 9:32 PM CDT
Nautical Twilight 5:40 AM CDT 10:13 PM CDT
Astronomical Twilight 4:54 AM CDT 10:59 PM CDT
Moon 8:25 PM CDT (8/20) 6:31 AM CDT (8/20)
Length of Visible Light 15h 09m
Length of Day
14h 02m
Full, 100% of the Moon is Illuminated
Aug 20
Full
Aug 20
Full
Aug 28
Last Quarter
Sep 5
New
Sep 12
First Quarter

Hourly Weather History & Observations

Time (CDT) Temp. Heat Index Dew Point Humidity Pressure Visibility Wind Dir Wind Speed Gust Speed Precip Events Conditions
12:52 AM 60.1 °F - 53.1 °F 78% 29.76 in 10.0 mi Calm Calm - N/A   Clear
1:52 AM 57.9 °F - 53.1 °F 84% 29.76 in 10.0 mi Calm Calm - N/A   Clear
2:52 AM 55.9 °F - 53.1 °F 90% 29.74 in 10.0 mi Calm Calm - N/A   Clear
3:52 AM 55.9 °F - 52.0 °F 87% 29.74 in 10.0 mi Calm Calm - N/A   Clear
4:52 AM 57.0 °F - 52.0 °F 83% 29.73 in 10.0 mi SW 3.5 mph - N/A   Clear
5:52 AM 54.0 °F - 51.1 °F 90% 29.74 in 10.0 mi Calm Calm - N/A   Clear
6:52 AM 54.0 °F - 51.1 °F 90% 29.74 in 10.0 mi Calm Calm - N/A   Clear
7:52 AM 59.0 °F - 53.1 °F 81% 29.74 in 9.0 mi Calm Calm - N/A   Clear
8:52 AM 64.0 °F - 55.9 °F 75% 29.75 in 10.0 mi SSW 3.5 mph - N/A   Clear
9:52 AM 68.0 °F - 55.0 °F 63% 29.77 in 10.0 mi South 5.8 mph - N/A   Clear
10:52 AM 77.0 °F - 57.9 °F 52% 29.76 in 10.0 mi Variable 3.5 mph - N/A   Clear
11:52 AM 87.1 °F 84.9 °F 53.1 °F 31% 29.76 in 10.0 mi West 12.7 mph - N/A   Clear
12:52 PM 87.1 °F 84.9 °F 53.1 °F 31% 29.76 in 10.0 mi West 17.3 mph 21.9 mph N/A   Clear
1:52 PM 89.1 °F - 52.0 °F 28% 29.76 in 10.0 mi West 19.6 mph 25.3 mph N/A   Clear
2:52 PM 90.0 °F - 50.0 °F 25% 29.77 in 10.0 mi West 18.4 mph 27.6 mph N/A   Clear
3:52 PM 89.1 °F - 48.0 °F 24% 29.77 in 10.0 mi West 19.6 mph 25.3 mph N/A   Clear
4:52 PM 88.0 °F - 50.0 °F 27% 29.77 in 10.0 mi West 20.7 mph 24.2 mph N/A   Clear
5:52 PM 87.1 °F - 52.0 °F 30% 29.79 in 10.0 mi WNW 16.1 mph 24.2 mph N/A   Clear
6:52 PM 84.9 °F 83.6 °F 55.0 °F 36% 29.81 in 10.0 mi North 12.7 mph - N/A   Clear
7:52 PM 81.0 °F 80.5 °F 54.0 °F 39% 29.82 in 10.0 mi North 10.4 mph - N/A   Clear
8:52 PM 77.0 °F - 55.0 °F 47% 29.83 in 10.0 mi NNE 11.5 mph - N/A   Clear
9:52 PM 72.0 °F - 55.9 °F 57% 29.86 in 10.0 mi NNE 10.4 mph - N/A   Clear
10:52 PM 69.1 °F - 55.9 °F 63% 29.88 in 10.0 mi NNE 9.2 mph - N/A   Clear
11:52 PM 68.0 °F - 55.9 °F 65% 29.87 in 10.0 mi NNE 9.2 mph - N/A   Clear